When you browse on this site, cookies collect data to enhance your experience and personalize the content and advertising you see.
Visit our Privacy Policy to learn more. By continuing to use the site, you agree to this use of cookies and data.
  • In Portugal
  • List of Countries
  • For 7 days
  • Water Temperature
  • Satellite Maps
  • Weather Map
  • Weather Widgets
  • user-avatar
    Login

    Hourly Weather Kiustendil

    Today, 21 January, Monday

    Time Temperature Precipitation Wind Pressure Humidity
    00:00 -5°C° 0 mm 0 mps 620 mmHg 94%
    01:00 -6°C° 0 mm 0 mps 619 mmHg 93%
    02:00 -6°C° 0 mm 0 mps 619 mmHg 93%
    03:00 -6°C° 0 mm 0 mps 619 mmHg 92%
    04:00 -7°C° 0 mm 1 mps 619 mmHg 91%
    05:00 -7°C° 0 mm 1 mps 619 mmHg 91%
    06:00 -7°C° 0 mm 1 mps 619 mmHg 90%
    07:00 -7°C° 0 mm 1 mps 619 mmHg 90%
    08:00 -6°C° 0 mm 1 mps 620 mmHg 88%
    09:00 -3°C° 0 mm 1 mps 621 mmHg 87%
    10:00 -2°C° 0 mm 1 mps 621 mmHg 85%
    11:00 -2°C° 0 mm 1 mps 621 mmHg 84%
    12:00 -2°C° 0 mm 0 mps 621 mmHg 84%
    13:00 -1°C° 0 mm 0 mps 621 mmHg 83%
    14:00 -2°C° 0 mm 0 mps 621 mmHg 85%
    15:00 -3°C° 0 mm 0 mps 621 mmHg 88%
    16:00 -4°C° 0 mm 0 mps 621 mmHg 90%
    17:00 -4°C° 0 mm 0 mps 621 mmHg 90%
    18:00 -5°C° 0 mm 0 mps 620 mmHg 91%
    19:00 -6°C° 0 mm 0 mps 620 mmHg 91%
    20:00 -6°C° 0 mm 0 mps 620 mmHg 91%
    21:00 -6°C° 0 mm 0 mps 620 mmHg 91%
    22:00 -6°C° 0 mm 1 mps 620 mmHg 91%
    23:00 -6°C° 0 mm 1 mps 620 mmHg 91%

    Tomorrow, 22 January, Tuesday

    Time Temperature Precipitation Wind Pressure Humidity
    00:00 -6°C° 0 mm 1 mps 620 mmHg 91%
    01:00 -6°C° 0 mm 1 mps 620 mmHg 91%
    02:00 -4°C° 0.1 mm 1 mps 620 mmHg 91%
    03:00 -4°C° 0.1 mm 1 mps 620 mmHg 92%
    04:00 -4°C° 0.1 mm 1 mps 620 mmHg 93%
    05:00 -4°C° 0.3 mm 1 mps 620 mmHg 93%
    06:00 -4°C° 0.3 mm 1 mps 619 mmHg 93%
    07:00 -4°C° 0.3 mm 1 mps 619 mmHg 94%
    08:00 -3°C° 0.2 mm 1 mps 619 mmHg 93%
    09:00 -4°C° 0.2 mm 2 mps 619 mmHg 93%
    10:00 -3°C° 0.2 mm 2 mps 620 mmHg 92%
    11:00 -3°C° 0.3 mm 2 mps 619 mmHg 91%
    12:00 -4°C° 0.3 mm 3 mps 619 mmHg 91%
    13:00 -2°C° 0.3 mm 3 mps 618 mmHg 90%
    14:00 -4°C° 0 mm 3 mps 618 mmHg 91%
    15:00 -3°C° 0 mm 2 mps 617 mmHg 93%
    16:00 -3°C° 0 mm 2 mps 616 mmHg 95%
    17:00 -4°C° 0 mm 2 mps 616 mmHg 95%
    18:00 -4°C° 0 mm 2 mps 615 mmHg 95%
    19:00 -4°C° 0 mm 2 mps 615 mmHg 95%
    20:00 -4°C° 0.1 mm 2 mps 615 mmHg 95%
    21:00 -4°C° 0.1 mm 2 mps 614 mmHg 95%
    22:00 -4°C° 0.1 mm 2 mps 614 mmHg 95%
    23:00 -4°C° 0.3 mm 2 mps 614 mmHg 96%

    Day after tomorrow, 23 January, Wednesday

    Time Temperature Precipitation Wind Pressure Humidity
    00:00 -4°C° 0.3 mm 2 mps 613 mmHg 96%
    01:00 -4°C° 0.3 mm 2 mps 613 mmHg 97%
    02:00 -4°C° 0 mm 2 mps 613 mmHg 97%
    03:00 -4°C° 0 mm 2 mps 613 mmHg 97%
    04:00 -4°C° 0 mm 2 mps 613 mmHg 97%
    05:00 -4°C° 0 mm 2 mps 613 mmHg 97%
    06:00 -4°C° 0 mm 2 mps 613 mmHg 97%
    07:00 -4°C° 0 mm 2 mps 613 mmHg 97%
    08:00 -4°C° 0 mm 2 mps 613 mmHg 95%
    09:00 -4°C° 0 mm 3 mps 613 mmHg 94%
    10:00 -4°C° 0 mm 3 mps 614 mmHg 93%
    11:00 -2°C° 0 mm 3 mps 613 mmHg 91%
    12:00 -2°C° 0 mm 3 mps 613 mmHg 89%
    13:00 -2°C° 0 mm 3 mps 613 mmHg 87%
    14:00 -2°C° 0 mm 3 mps 613 mmHg 88%
    15:00 -3°C° 0 mm 2 mps 612 mmHg 90%
    16:00 -3°C° 0 mm 2 mps 612 mmHg 91%
    17:00 -4°C° 0 mm 2 mps 612 mmHg 92%
    18:00 -2°C° 0 mm 1 mps 612 mmHg 93%
    19:00 -3°C° 0 mm 1 mps 612 mmHg 94%
    20:00 -3°C° 0 mm 1 mps 612 mmHg 93%
    21:00 -3°C° 0 mm 1 mps 611 mmHg 93%
    22:00 -3°C° 0 mm 1 mps 611 mmHg 92%
    23:00 -3°C° 0.4 mm 1 mps 611 mmHg 92%

    24 January, Thursday

    Time Temperature Precipitation Wind Pressure Humidity
    00:00 -3°C° 0.4 mm 1 mps 611 mmHg 91%
    01:00 -5°C° 0.4 mm 2 mps 611 mmHg 90%
    02:00 -5°C° 0.5 mm 2 mps 610 mmHg 91%
    03:00 -5°C° 0.5 mm 2 mps 610 mmHg 91%
    04:00 -5°C° 0.5 mm 2 mps 609 mmHg 92%
    05:00 -5°C° 0.1 mm 2 mps 609 mmHg 92%
    06:00 -5°C° 0.1 mm 2 mps 609 mmHg 92%
    07:00 -5°C° 0.1 mm 2 mps 609 mmHg 92%
    08:00 -5°C° 0 mm 2 mps 609 mmHg 91%
    09:00 -4°C° 0 mm 2 mps 609 mmHg 90%
    10:00 -4°C° 0 mm 3 mps 610 mmHg 90%
    11:00 -4°C° 0.1 mm 3 mps 610 mmHg 89%
    12:00 -4°C° 0.1 mm 3 mps 609 mmHg 89%
    13:00 -2°C° 0.1 mm 3 mps 609 mmHg 88%
    14:00 -4°C° 0.2 mm 3 mps 609 mmHg 89%
    15:00 -3°C° 0.2 mm 2 mps 609 mmHg 91%
    16:00 -4°C° 0.2 mm 2 mps 609 mmHg 92%
    17:00 -4°C° 0.3 mm 2 mps 609 mmHg 92%
    18:00 -5°C° 0.3 mm 2 mps 609 mmHg 93%
    19:00 -5°C° 0.3 mm 2 mps 609 mmHg 93%
    20:00 -5°C° 0.2 mm 2 mps 610 mmHg 93%
    21:00 -5°C° 0.2 mm 2 mps 610 mmHg 93%
    22:00 -5°C° 0.2 mm 2 mps 610 mmHg 93%
    23:00 -5°C° 0.5 mm 2 mps 610 mmHg 93%

    25 January, Friday

    Time Temperature Precipitation Wind Pressure Humidity
    00:00 -5°C° 0.5 mm 2 mps 610 mmHg 93%
    01:00 -3°C° 0.5 mm 1 mps 610 mmHg 93%
    02:00 -3°C° 1 mm 1 mps 610 mmHg 94%
    03:00 -3°C° 1 mm 1 mps 610 mmHg 94%
    04:00 -3°C° 1 mm 1 mps 610 mmHg 95%
    05:00 -3°C° 0.3 mm 1 mps 611 mmHg 95%
    06:00 -3°C° 0.3 mm 1 mps 611 mmHg 94%
    07:00 -3°C° 0.3 mm 1 mps 611 mmHg 94%
    08:00 -3°C° 0.1 mm 1 mps 611 mmHg 95%
    09:00 -3°C° 0.1 mm 1 mps 612 mmHg 95%
    10:00 -4°C° 0.1 mm 2 mps 612 mmHg 96%
    11:00 -4°C° 0.6 mm 2 mps 612 mmHg 96%
    12:00 -4°C° 0.6 mm 2 mps 611 mmHg 96%
    13:00 -2°C° 0.6 mm 1 mps 611 mmHg 96%
    14:00 -5°C° 0.8 mm 2 mps 611 mmHg 95%
    15:00 -5°C° 0.8 mm 2 mps 611 mmHg 95%
    16:00 -5°C° 0.8 mm 2 mps 611 mmHg 94%
    17:00 -6°C° 0.6 mm 2 mps 611 mmHg 95%
    18:00 -6°C° 0.6 mm 2 mps 611 mmHg 95%
    19:00 -7°C° 0.6 mm 2 mps 611 mmHg 95%
    20:00 -7°C° 0.3 mm 2 mps 611 mmHg 95%
    21:00 -8°C° 0.3 mm 2 mps 611 mmHg 95%
    22:00 -7°C° 0.3 mm 1 mps 611 mmHg 95%
    23:00 -8°C° 0.1 mm 1 mps 611 mmHg 95%

    26 January, Saturday

    Time Temperature Precipitation Wind Pressure Humidity
    00:00 -9°C° 0.1 mm 2 mps 611 mmHg 94%
    01:00 -9°C° 0.1 mm 2 mps 612 mmHg 94%
    02:00 -10°C° 0 mm 2 mps 611 mmHg 94%
    03:00 -10°C° 0 mm 2 mps 611 mmHg 94%
    04:00 -12°C° 0 mm 2 mps 611 mmHg 93%
    05:00 -12°C° 0 mm 2 mps 611 mmHg 93%
    06:00 -12°C° 0 mm 2 mps 611 mmHg 93%
    07:00 -12°C° 0 mm 2 mps 611 mmHg 92%
    08:00 -10°C° 0 mm 2 mps 612 mmHg 90%
    09:00 -9°C° 0 mm 2 mps 613 mmHg 88%
    10:00 -9°C° 0 mm 3 mps 613 mmHg 87%
    11:00 -8°C° 0 mm 3 mps 613 mmHg 86%
    12:00 -8°C° 0 mm 3 mps 614 mmHg 86%
    13:00 -7°C° 0 mm 3 mps 614 mmHg 85%
    14:00 -8°C° 0 mm 3 mps 614 mmHg 86%
    15:00 -7°C° 0 mm 2 mps 613 mmHg 87%
    16:00 -7°C° 0 mm 2 mps 613 mmHg 87%
    17:00 -8°C° 0 mm 2 mps 613 mmHg 89%
    18:00 -9°C° 0 mm 2 mps 613 mmHg 90%
    19:00 -10°C° 0 mm 2 mps 613 mmHg 91%
    20:00 -10°C° 0 mm 2 mps 613 mmHg 91%
    21:00 -12°C° 0 mm 2 mps 613 mmHg 91%
    22:00 -12°C° 0 mm 2 mps 613 mmHg 91%
    23:00 -12°C° 0 mm 2 mps 613 mmHg 91%
    Show more